Regional Weather Roundup
Issued by NWS Upton, NY

Current Version | Previous Version | Text Only | Print | Product List | Glossary On
Versions: 1 2 3 4 5 6 7 8 9 10 11 12 13 14 15 16 17 18 19 20 21 22 23 24 25 26 27
000
ASUS41 KOKX 242104
RWROKX

REGIONAL WEATHER ROUNDUP
NATIONAL WEATHER SERVICE NEW YORK NY
500 PM EDT SUN JUL 24 2016

NOTE: "FAIR" INDICATES FEW OR NO CLOUDS BELOW 12,000 FEET WITH NO
SIGNIFICANT WEATHER AND/OR OBSTRUCTIONS TO VISIBILITY.

NYZ071-072-176-178-NJZ106-104-242200-
NEW YORK CITY METRO AREA

CITY           SKY/WX    TMP DP  RH WIND       PRES   REMARKS
Central Park   SUNNY     88  63  43 VRB6      29.96R
LaGuardia APRT PTSUNNY   88  64  44 SE17      29.93S
Kennedy INTL   CLOUDY    82  66  58 S18G26    29.95F
Newark/Liberty PTSUNNY   94  57  28 W12G24    29.92S HX  92
BRNX BOT. GARD   N/A     86  63  45 S15       29.95S
Wall St Helipt CLEAR     90  66  45 S5        29.94S HX  92
Teterboro      SUNNY     93  55  27 CALM      29.90S HX  91
$$

NYZ177-179-078>081-242200-
LONG ISLAND NEW YORK

CITY           SKY/WX    TMP DP  RH WIND       PRES   REMARKS
FARMINGDALE    MOSUNNY   84  62  47 S16       29.95F
ISLIP          PTSUNNY   83  65  54 SW9       29.95S
SHIRLEY        PTSUNNY   84  63  49 S13       29.96S
RIVERHEAD      NOT AVBL
WESTHAMPTON    PTSUNNY   78  63  59 VRB7      29.97S
SOUTHAMPTON      N/A     77  70  78 SW6       29.92S
BRIDGEHAMPTON    N/A     84  66  54 S5        29.95S
EAST HAMPTON   FAIR      78  64  60 SW14      29.95S
MONTAUK POINT    N/A     78  66  66 S8        29.96S
$$

NYZ052-065-067-242200-
HUDSON VALLEY

CITY           SKY/WX    TMP DP  RH WIND       PRES   REMARKS
WHITE PLAINS   MOSUNNY   87  62  43 S10       29.94R
NEWBURGH       MOSUNNY   91  55  29 W12       29.95S
MONTGOMERY     MOSUNNY   93  58  30 NW10      29.93S HX  92
POUGHKEEPSIE   MOSUNNY   93  56  28 SE6       29.92S HX  91
ALBANY         MOSUNNY   87  56  34 NE5       29.95S
$$

NJZ001-105-106-008-010-013-015-019>022-104-242200-
NEW JERSEY

CITY           SKY/WX    TMP DP  RH WIND       PRES   REMARKS
NEWARK/LIBERTY PTSUNNY   94  57  28 W12G24    29.92S HX  92
TETERBORO      SUNNY     93  55  27 CALM      29.90S HX  91
CALDWELL       MOSUNNY   94  58  29 NW8       29.93S HX  93
MORRISTOWN     PTSUNNY   91  63  38 W12G17    29.94S HX  92
SOMERVILLE     MOSUNNY   95  60  31 N5        29.92S HX  95
SUSSEX         MOSUNNY   91  59  33 VRB3      29.95S HX  90
ANDOVER          N/A     90  62  39 CALM      29.96S HX  90
TRENTON        MOSUNNY   92  62  36 SW6       29.93F HX  92
MILLVILLE      MOSUNNY   87  62  43 S7        29.97F
ATLANTIC CITY  MOSUNNY   84  66  54 S12       29.98S
WRIGHTSTOWN    CLOUDY    92  62  36 S3        29.91F HX  92
TOMS RIVER     MOSUNNY   86  66  51 S10       29.96S
BELMAR         MOSUNNY   86  67  52 SE12      29.97S
$$

PAZ047>061-062-071-242200-
EASTERN PENNSYLVANIA

CITY           SKY/WX    TMP DP  RH WIND       PRES   REMARKS
PHILADELPHIA   PTSUNNY   93  63  36 W14       29.95F HX  94
ALLENTOWN      CLOUDY    95  61  32 VRB5      29.94F HX  95
SCRANTON       PTSUNNY   93  55  27 SW13      29.96F HX  91
$$

CTZ002-004>006-009-010-012-RIZ004-006-007-MAZ004-011-015-242200-
SOUTHERN NEW ENGLAND
 IN CT

CITY           SKY/WX    TMP DP  RH WIND       PRES   REMARKS
BRADLEY INTL   PTSUNNY   92  54  27 NW9       29.92R HX  90
HARTFORD       MOSUNNY   93  56  28 N9        29.91S HX  91
DANBURY        MOSUNNY   92  52  25 CALM      29.95S
WTRBRY/OXFORD  PTSUNNY   88  57  35 NW5       29.99R
BRIDGEPORT     PTSUNNY   87  59  38 S9        29.93S
MERIDEN        MOSUNNY   91  55  29 W7        29.93R
NEW HAVEN      CLOUDY    85  61  44 SW9       29.94R
CHESTER        FAIR      86  63  45 VRB7      29.95R
GROTON         MOSUNNY   80  65  59 S6        29.93S
WILLIMANTIC    NOT AVBL

 IN RI

CITY           SKY/WX    TMP DP  RH WIND       PRES   REMARKS
PROVIDENCE     MOSUNNY   83  67  58 S13       29.92F
BLOCK ISLAND   SUNNY     77  65  66 SW16      29.95F
WESTERLY       SUNNY     83  62  49 SW13G21   29.94F

 IN MA

CITY           SKY/WX    TMP DP  RH WIND       PRES   REMARKS
BOSTON         PTSUNNY   81  61  50 E9        29.91S
WORCESTER      SUNNY     84  55  36 W5        29.96S
WESTFIELD      MOSUNNY   91  55  29 MISG      29.92S
PROVINCETOWN   SUNNY     81  62  52 S10       29.93F
NANTUCKET      MOSUNNY   74  66  76 SW10      29.96R
$$

ANZ330-335-338-340-345-350-353-355-242200-
COASTAL MARINE OBSERVATIONS


STATION/POSITION TIME  SKY/WX   TEMP    WIND        PRES    VSBY  WAVE
                                AIR SEA DIR/SP/G                  HT/PER
                 (UTC)          (F)     (DEG/KT/KT) (MB)    (MI)  (FT/S)
NY HARB ENTRANCE 1950            76 74  180/ 14/ 16 1014.1          2/ 6
20S FIRE ISLAND  1950            76 74  190/ 10/ 12 1014.4          2/ 6
GREAT SOUTH BAY  2000            77 81  230/ 12/ 16   N/A
23 SSW MONTAUK P 1950            75 73  210/ 12/ 14 1014.9          2/ 6
15 E BARNEGAT LI 2022               77                N/A           2/ 6
HUDSON CANYON    NOT AVBL
KINGS POINT      2000            81 72              1013.6
EXECUTION ROCKS  2000            83     180/ 12/ 16   N/A
CENTRAL LI SOUND 2000            79 75  200/  8/ 10   N/A           1/ 2
EASTERN LI SOUND 2000            72 70  150/  4/  6   N/A
ROBBINS REEF     2000            77     160/ 20/ 22 1013.0
$$


>>>>>>>>>>>>>>>>>>>>>>>>>>>> KEY <<<<<<<<<<<<<<<<<<<<<<<<<<<
>                                                          <
>     SKY/WX - SKY CONDITION/PRESENT WEATHER               <
>     TMP    - TEMPERATURE IN FAHRENHEIT                   <
>     DP     - DEWPOINT IN FAHRENHEIT                      <
>     RH     - RELATIVE HUMIDITY IN PERCENT                <
>     WIND   - DIRECTION AND SPEED IN MPH                  <
>     PRES   - MEAN SEA LEVEL PRESSURE IN INCHES OF HG     <
>     WCI    - WIND CHILL INDEX                            <
>     VSB    - VISIBILITY IN MILES                         <
>     HX     - HEAT INDEX                                  <
>     TC     - TEMPERATURE IN CELSIUS                      <
>     VRB    - VARIABLE WIND DIRECTION                     <
>                                                          <
>>>>>>>>>>>>>>>>>>>>>>>>>>>> KEY <<<<<<<<<<<<<<<<<<<<<<<<<<<






USA.gov is the U.S. government's official web portal to all federal, state and local government web resources and services.